Regional Weather Roundup
Issued by NWS

Home | Current Version | Previous Version | Text Only | Print | Product List | Glossary On
Versions: 1 2 3 4 5 6 7 8 9 10 11 12 13 14 15 16 17 18 19 20 21 22 23 24 25 26 27 28 29 30 31 32 33 34 35 36 37 38 39 40 41 42 43 44 45 46 47 48 49 50
000
ASUS45 KABQ 271310
RWRNM
WEATHER ROUNDUP FOR NEW MEXICO
NATIONAL WEATHER SERVICE ALBUQUERQUE NM
700 AM MDT MON APR 27 2015

NOTE: "FAIR" MEANS FEW OR NO CLOUDS BELOW 12,000 FEET AGL WITH NO
       SIGNIFICANT WEATHER OR OBSTRUCTIONS TO VISION.

      THIS PRODUCT IS RELEASED AS TWO VERSIONS.  ONE VERSION NEAR
      THE TOP OF THE HOUR CONTAINING PRELIMINARY DATA FROM ALBUQUERQUE
      AND OTHER STATIONS.  A FINAL VERSION WITH ADDITIONAL DATA IS
      ISSUED ABOUT 10 MINUTES AFTER THE HOUR.

NMZ501-503-504-510>518-271400-
NORTHWEST PLATEAU/NORTHCENTRAL MOUNTAINS

CITY           SKY/WX    TMP DP  RH WIND       PRES   REMARKS
FARMINGTON     CLEAR     37  35  92 NE6       29.99R WCI  32
LOS ALAMOS     MOCLDY    38  33  82 N9        30.01R WCI  31
SANTA FE       CLOUDY    39  36  89 NE8       29.98R WCI  33
TAOS           MOCLDY    34  27  75 N6        30.02R WCI  29
ANGEL FIRE     LGT SNOW  31  30  95 NE7         N/A  WCI  24

$$
NMZ402-403-502-505>509-271400-
WESTCENTRAL MOUNTAINS/SOUTHWEST MOUNTAINS

CITY           SKY/WX    TMP DP  RH WIND       PRES   REMARKS
GALLUP         MOCLDY    42  38  85 NE13      30.01R
GRANTS         MOCLDY    39  38  99 W6        30.01R WCI  34
SILVER CITY      N/A     39  36  87 NW9       29.95R WCI  33

$$
NMZ407-409-411-412-271400-
SOUTHERN DESERTS

CITY           SKY/WX    TMP DP  RH WIND       PRES   REMARKS
LORDSBURG      FAIR      37  36  93 NW6       29.93R WCI  33
DEMING         CLOUDY    42  38  85 SW5       29.92R
LAS CRUCES     CLOUDY    47  40  75 N10       29.91R
ALAMOGORDO     PTCLDY    46  41  81 NW10      29.88R
T OR C         CLEAR     45  42  89 NW6       29.93R

$$
NMZ519>523-271400-
CENTRAL VALLEYS/CENTRAL HIGHLANDS

CITY           SKY/WX    TMP DP  RH WIND       PRES   REMARKS
ALBUQUERQUE    PTCLDY    44  39  82 SW3       29.98R
DOUBLE EAGLE   PTCLDY    39  37  93 N10       29.99R WCI  32
MORIARTY ARPT  CLOUDY    38  35  86 NE10      30.01R WCI  31
CLINES CORNERS LGT SNOW  34  32  92 NE16      29.97R FOG     WCI  24
BELEN          PTSUNNY   42  38  87 NE8       29.98R
SOCORRO        CLOUDY    44  42  95 N6        29.96R

$$
NMZ524>526-539-540-271400-
SOUTHCENTRAL MOUNTAINS

CITY           SKY/WX    TMP DP  RH WIND       PRES   REMARKS
RUIDOSO        CLOUDY    37  36  93 N8        29.96R WCI  31

$$
NMZ527>531-271400-
NORTHEAST HIGHLANDS/NORTHEAST PLAINS

CITY           SKY/WX    TMP DP  RH WIND       PRES   REMARKS
LAS VEGAS      LGT SNOW  32  31  96 N13       30.01R FOG     WCI  22
RATON          CLOUDY    39  34  82 N17G28    30.00R WCI  30
CLAYTON        LGT RAIN  40  38  93 N22G32    29.97R WCI  30

$$
NMZ532>537-271400-
EASTCENTRAL PLAINS

CITY           SKY/WX    TMP DP  RH WIND       PRES   REMARKS
TUCUMCARI      RAIN      44  40  85 N17G30    29.95R
CANNON AFB     NOT AVBL
CLOVIS AIRPORT CLOUDY    45  41  87 N16       29.89R

$$
NMZ028-029-538-271400-
SOUTHEAST PLAINS

CITY           SKY/WX    TMP DP  RH WIND       PRES   REMARKS
ROSWELL        CLOUDY    51  44  77 N14       29.86R
ARTESIA        CLEAR     46  43  87 N12       29.86R
CARLSBAD       PTCLDY    47  36  65 W6        29.83R
HOBBS          MOCLDY    46  46 100 N6        29.83R


$$


USA.gov is the U.S. government's official web portal to all federal, state and local government web resources and services.